Regional Weather Roundup
Issued by NWS Spokane, WA

Home | Current Version | Previous Version | Text Only | Print | Product List | Glossary On
Versions: 1 2 3 4 5 6 7 8 9 10 11 12 13 14 15 16 17 18 19 20 21 22 23 24 25 26 27 28 29 30 31 32 33 34 35 36 37 38 39 40 41 42 43 44 45 46 47 48 49 50
000
NZUS01 KOTX 042057
RWROTX
EASTERN WASHINGTON/NORTHERN IDAHO ROUNDUP
NATIONAL WEATHER SERVICE, SPOKANE WA
200 PM PDT SAT JUL 04 2015

Note: "fair" indicated few or no clouds below 12,000 feet with no
significant weather and/or obstructions to visibility.

...NORTHEAST WASHINGTON AND NORTHERN IDAHO PANHANDLE...

CITY           SKY/WX    TMP DP  RH WIND       PRES   REMARKS
SPOKANE INTL   MOSUNNY   94  44  17 W13G23    29.78F HX  90
SPOKANE DOWNTO SUNNY     95  47  19 CALM      29.76F HX  91
DEER PARK      SUNNY     93  46  19 VRB7      29.78F

...SOUTHEAST WASHINGTON AND SOUTHERN IDAHO PANHANDLE...

CITY           SKY/WX    TMP DP  RH WIND       PRES   REMARKS
WALLA WALLA    MOSUNNY   98  44  15 SW8G18    29.73F HX  94
PULLMAN/MOSCOW SUNNY     91  45  20 VRB7      29.83F
LOWELL           N/A    102  46  15 S3        29.69F HX  98

...COLUMBIA BASIN...

CITY           SKY/WX    TMP DP  RH WIND       PRES   REMARKS
EPHRATA        SUNNY    102  48  16 W9        29.70F HX  98
MOSES LAKE     SUNNY    101  46  15 S12       29.71F HX  97
TRI CITIES     SUNNY     99  45  15 S5        29.67F HX  95
HERMISTON      MOSUNNY   99  44  15 NW9       29.69F HX  95
PENDLETON      MOSUNNY   98  45  16 NW10G26   29.74F HX  94

...EAST SLOPES CASCADES...

CITY           SKY/WX    TMP DP  RH WIND       PRES   REMARKS
THE DALLES     SUNNY     97  51  21 NW18G25   29.69F HX  94
YAKIMA         SUNNY    101  47  16 S6        29.71F HX  97
ELLENSBURG     SUNNY    100  44  14 SW9       29.76F HX  96
OMAK           SUNNY    100  37  11 N13G18    29.72F HX  95

...SOUTHERN BRITISH COLUMBIA...

CITY           SKY/WX    TMP DP  RH WIND       PRES   REMARKS

...WESTERN MONTANA...

CITY           SKY/WX    TMP DP  RH WIND       PRES   REMARKS
MISSOULA       SUNNY     94  36  13 VRB7      29.80F

...NEIGHBORING CITIES...

CITY           SKY/WX    TMP DP  RH WIND       PRES   REMARKS
SEATTLE        MOSUNNY   88  46  23 N9        29.86F



USA.gov is the U.S. government's official web portal to all federal, state and local government web resources and services.